Regional Weather Roundup
Issued by NWS Goodland, KS

Home | Current Version | Previous Version | Text Only | Print | Product List | Glossary On
Versions: 1 2 3 4 5 6 7 8 9 10 11 12 13 14 15 16 17 18 19 20 21 22 23 24 25 26 27 28 29 30 31 32 33 34 35 36 37 38 39 40 41 42 43 44 45 46 47 48 49 50
000
ASUS43 KGLD 271759
RWRGLD

GOODLAND FORECAST AREA HOURLY WEATHER ROUNDUP
NATIONAL WEATHER SERVICE GOODLAND KS
1100 AM MST SAT DEC 27 2014

...OFFICIAL OBSERVATIONS...

CITY           SKY/WX    TMP DP  RH WIND       PRES   REMARKS
GOODLAND KS    SUNNY     21  13  71 NW15      30.22F WCI   8
HILL CITY KS   SUNNY     23  14  68 NW8       30.29F
IMPERIAL NEB   SUNNY     17   9  70 NW9       30.22F
MCCOOK NEB     SUNNY     19  12  74 W10       30.26F WCI   7
AKRON CO       SUNNY     14  10  84 W9        30.17F
BURLINGTON CO  SUNNY     23  12  62 NW12      30.21F WCI  12
LIMON CO       SUNNY     20  10  65 W8        30.17F
$$

...UNOFFICIAL OBSERVATIONS...

CITY           SKY/WX    TMP DP  RH WIND       PRES   REMARKS
COLBY KS       SUNNY     21  18  86 W9        30.25F
NORTON KS      SUNNY     23  12  63 W9        30.26F
SHARON SPRINGS   N/A     25  22  87 N7          N/A
TRIBUNE KS     SUNNY     27  21  80 W10       30.27F WCI  17
KIT CARSON CO    N/A     23  15  71 MISG        N/A
YUMA CO          N/A     17  10  74 W14         N/A  WCI   3
$$


USA.gov is the U.S. government's official web portal to all federal, state and local government web resources and services.